Weather History for KUKT - February, 2014

Change the Weather History Date:

Saturday, February 22, 2014

  Actual Average (KABE) Record (KABE)
Temperature  
Mean Temperature 40 °F 32 °F  
Max Temperature 53 °F 42 °F 68 °F (1974)
Min Temperature 26 °F 23 °F 2 °F (1968)
Degree Days  
Heating Degree Days 26 33  
Month to date heating degree days 768  
Since 1 July heating degree days 4118  
Cooling Degree Days 0 0  
Month to date cooling degree days 0  
Year to date cooling degree days 0  
Moisture  
Dew Point 23 °F    
Average Humidity 60    
Maximum Humidity 100    
Minimum Humidity 26    
Precipitation  
Precipitation 0.00 in 0.10 in 0.90 in (2003)
Month to date precipitation 2.11  
Year to date precipitation 5.14  
Snow  
Snow 0.00 in 0.40 in 8.60 in (1948)
Month to date snowfall 9.1  
Since 1 July snowfall 25.0  
Snow Depth -    
Sea Level Pressure  
Sea Level Pressure 30.01 in    
Wind  
Wind Speed 5 mph (SSW)    
Max Wind Speed 16 mph    
Max Gust Speed 28 mph    
Visibility 10 miles    
Events      
T = Trace of Precipitation, MM = Missing Value Source: NWS Daily Summary

Daily Weather History Graph

Daily Weather History Graph

Search for Another Location

Airport or City:

Trip Planner

Search our weather history database for the weather conditions in past years. The results will help you decide how hot, cold, wet, or windy it might be!

Date:

Astronomy

Feb. 22, 2014 Rise Set
Actual Time 6:45 AM EST 5:45 PM EST
Civil Twilight 6:17 AM EST 6:12 PM EST
Nautical Twilight 5:46 AM EST 6:44 PM EST
Astronomical Twilight 5:14 AM EST 7:15 PM EST
Moon 12:38 AM EST (2/22) 10:53 AM EST (2/22)
Length of Visible Light 11h 54m
Length of Day
10h 59m
Waning Gibbous, 50% of the Moon is Illuminated
Feb 22
Waning Gibbous
Feb 22
Last Quarter
Mar 1
New
Mar 8
First Quarter
Mar 16
Full

Hourly Weather History & Observations

Time (EST) Temp. Windchill Dew Point Humidity Pressure Visibility Wind Dir Wind Speed Gust Speed Precip Events Conditions
12:15 AM 32.0 °F 28.7 °F 32.0 °F 100% 29.93 in 10.0 mi SW 3.5 mph - N/A   Clear
12:35 AM 30.2 °F - 30.2 °F 100% 29.94 in 10.0 mi Calm Calm - N/A   Clear
12:55 AM 32.0 °F 26.4 °F 32.0 °F 100% 29.94 in 10.0 mi SSW 5.8 mph - N/A   Clear
1:15 AM 32.0 °F 28.7 °F 30.2 °F 93% 29.94 in 10.0 mi SSW 3.5 mph - N/A   Clear
1:35 AM 32.0 °F - 28.4 °F 87% 29.95 in 10.0 mi Calm Calm - N/A   Clear
1:55 AM 26.6 °F - 26.6 °F 100% 29.95 in 10.0 mi Calm Calm - N/A   Clear
2:15 AM 28.4 °F - 26.6 °F 93% 29.96 in 9.0 mi Calm Calm - N/A   Clear
2:35 AM 30.2 °F 26.7 °F 26.6 °F 86% 29.96 in 10.0 mi SSW 3.5 mph - N/A   Clear
2:55 AM 32.0 °F 26.4 °F 26.6 °F 80% 29.96 in 10.0 mi SSW 5.8 mph - N/A   Clear
3:15 AM 32.0 °F 28.7 °F 26.6 °F 80% 29.97 in 10.0 mi SW 3.5 mph - N/A   Clear
3:35 AM 30.2 °F - 26.6 °F 86% 29.98 in 10.0 mi Calm Calm - N/A   Clear
3:55 AM 26.6 °F - 26.6 °F 100% 29.98 in 10.0 mi Calm Calm - N/A   Clear
4:15 AM 26.6 °F 22.6 °F 24.8 °F 93% 29.99 in 10.0 mi SW 3.5 mph - N/A   Clear
4:35 AM 33.8 °F 27.7 °F 23.0 °F 65% 30.00 in 10.0 mi West 6.9 mph - N/A   Clear
4:55 AM 37.4 °F 32.8 °F 21.2 °F 52% 30.00 in 10.0 mi WSW 5.8 mph - N/A   Clear
5:15 AM 37.4 °F 32.8 °F 19.4 °F 48% 30.01 in 10.0 mi SW 5.8 mph - N/A   Clear
5:35 AM 39.2 °F 35.9 °F 17.6 °F 42% 30.01 in 10.0 mi SSW 4.6 mph - N/A   Clear
5:55 AM 35.6 °F 32.8 °F 19.4 °F 52% 30.02 in 10.0 mi South 3.5 mph - N/A   Clear
6:15 AM 32.0 °F - 23.0 °F 69% 30.03 in 10.0 mi Calm Calm - N/A   Clear
6:35 AM 30.2 °F - 23.0 °F 75% 30.03 in 10.0 mi Calm Calm - N/A   Clear
6:55 AM 28.4 °F - 23.0 °F 80% 30.03 in 10.0 mi Calm Calm - N/A   Clear
7:15 AM 26.6 °F - 21.2 °F 80% 30.04 in 10.0 mi Calm Calm - N/A   Clear
7:35 AM 26.6 °F 22.6 °F 23.0 °F 86% 30.05 in 10.0 mi SW 3.5 mph - N/A   Clear
7:55 AM 26.6 °F 22.6 °F 23.0 °F 86% 30.05 in 10.0 mi SSW 3.5 mph - N/A   Unknown
8:15 AM 30.2 °F - 23.0 °F 75% 30.06 in 10.0 mi Calm Calm - N/A   Unknown
8:35 AM 32.0 °F 28.7 °F 23.0 °F 69% 30.06 in 10.0 mi SSW 3.5 mph - N/A   Clear
8:55 AM 37.4 °F 33.8 °F 23.0 °F 56% 30.06 in 10.0 mi South 4.6 mph - N/A   Clear
9:15 AM 39.2 °F 35.0 °F 23.0 °F 52% 30.06 in 10.0 mi South 5.8 mph - N/A   Clear
9:35 AM 41.0 °F 36.4 °F 24.8 °F 53% 30.06 in 10.0 mi South 6.9 mph - N/A   Clear
9:55 AM 42.8 °F 39.3 °F 24.8 °F 49% 30.06 in 10.0 mi South 5.8 mph - N/A   Clear
10:15 AM 44.6 °F 40.2 °F 24.8 °F 46% 30.05 in 10.0 mi South 8.1 mph - N/A   Clear
10:35 AM 44.6 °F 40.2 °F 24.8 °F 46% 30.04 in 10.0 mi South 8.1 mph 16.1 mph N/A   Clear
10:55 AM 44.6 °F 39.7 °F 23.0 °F 43% 30.04 in 10.0 mi South 9.2 mph - N/A   Clear
11:15 AM 46.4 °F 41.1 °F 23.0 °F 40% 30.04 in 10.0 mi SSW 11.5 mph 18.4 mph N/A   Clear
11:35 AM 46.4 °F 41.9 °F 23.0 °F 40% 30.04 in 10.0 mi South 9.2 mph - N/A   Clear
11:55 AM 48.2 °F - 23.0 °F 37% 30.04 in 10.0 mi South 10.4 mph 16.1 mph N/A   Clear
12:15 PM 48.2 °F - 23.0 °F 37% 30.02 in 10.0 mi South 9.2 mph - N/A   Clear
12:35 PM 50.0 °F - 19.4 °F 30% 30.01 in 10.0 mi South 11.5 mph 18.4 mph N/A   Clear
12:55 PM 50.0 °F - 19.4 °F 30% 30.00 in 10.0 mi SSW 13.8 mph 24.2 mph N/A   Clear
1:15 PM 51.8 °F - 19.4 °F 28% 30.00 in 10.0 mi SSW 13.8 mph 20.7 mph N/A   Clear
1:35 PM 51.8 °F - 19.4 °F 28% 29.99 in 10.0 mi SSW 16.1 mph 27.6 mph N/A   Clear
1:55 PM 51.8 °F - 19.4 °F 28% 29.98 in 10.0 mi SSW 15.0 mph 21.9 mph N/A   Clear
2:15 PM 51.8 °F - 19.4 °F 28% 29.97 in 10.0 mi SSW 16.1 mph 24.2 mph N/A   Clear
2:35 PM 51.8 °F - 19.4 °F 28% 29.98 in 10.0 mi SSW 12.7 mph 20.7 mph N/A   Clear
2:55 PM 51.8 °F - 19.4 °F 28% 29.98 in 10.0 mi SSW 12.7 mph 23.0 mph N/A   Clear
3:15 PM 51.8 °F - 19.4 °F 28% 29.98 in 10.0 mi SSW 10.4 mph 19.6 mph N/A   Clear
3:35 PM 53.6 °F - 19.4 °F 26% 29.98 in 10.0 mi SSW 11.5 mph 21.9 mph N/A   Clear
3:55 PM 53.6 °F - 19.4 °F 26% 29.98 in 10.0 mi SSW 12.7 mph 19.6 mph N/A   Clear
4:15 PM 53.6 °F - 19.4 °F 26% 29.99 in 10.0 mi SSW 11.5 mph 23.0 mph N/A   Clear
4:35 PM 53.6 °F - 19.4 °F 26% 29.99 in 10.0 mi SSW 10.4 mph 18.4 mph N/A   Clear
4:55 PM 51.8 °F - 21.2 °F 30% 29.99 in 10.0 mi SSW 10.4 mph - N/A   Clear
5:15 PM 50.0 °F - 21.2 °F 32% 29.99 in 10.0 mi SSW 6.9 mph - N/A   Clear
5:35 PM 48.2 °F - 23.0 °F 37% 29.99 in 10.0 mi SSW 6.9 mph - N/A   Clear
5:55 PM 48.2 °F - 23.0 °F 37% 30.00 in 10.0 mi SSW 5.8 mph - N/A   Clear
6:15 PM 48.2 °F - 21.2 °F 34% 30.00 in 10.0 mi SSW 4.6 mph - N/A   Clear
6:35 PM 48.2 °F - 21.2 °F 34% 30.01 in 10.0 mi SSW 5.8 mph - N/A   Clear
6:55 PM 46.4 °F 44.3 °F 21.2 °F 37% 30.01 in 10.0 mi SSW 4.6 mph - N/A   Clear
7:15 PM 42.8 °F 40.1 °F 24.8 °F 49% 30.01 in 10.0 mi SSW 4.6 mph - N/A   Clear
7:35 PM 37.4 °F 34.9 °F 26.6 °F 65% 30.02 in 10.0 mi SSW 3.5 mph - N/A   Clear
7:55 PM 35.6 °F 32.8 °F 24.8 °F 65% 30.02 in 10.0 mi SW 3.5 mph - N/A   Clear
8:15 PM 35.6 °F 32.8 °F 26.6 °F 70% 30.02 in 10.0 mi South 3.5 mph - N/A   Clear
8:35 PM 33.8 °F 30.8 °F 24.8 °F 70% 30.02 in 10.0 mi SSW 3.5 mph - N/A   Clear
8:55 PM 32.0 °F 28.7 °F 24.8 °F 75% 30.02 in 10.0 mi SW 3.5 mph - N/A   Clear
9:15 PM 32.0 °F 28.7 °F 24.8 °F 75% 30.02 in 10.0 mi SW 3.5 mph - N/A   Clear
9:35 PM 32.0 °F 28.7 °F 24.8 °F 75% 30.02 in 10.0 mi SSW 3.5 mph - N/A   Clear
9:55 PM 32.0 °F - 26.6 °F 80% 30.02 in 10.0 mi Calm Calm - N/A   Clear
10:15 PM 32.0 °F - 26.6 °F 80% 30.02 in 10.0 mi Calm Calm - N/A   Clear
10:35 PM 30.2 °F - 24.8 °F 80% 30.02 in 10.0 mi Calm Calm - N/A   Clear
10:55 PM 30.2 °F 26.7 °F 26.6 °F 86% 30.02 in 10.0 mi SSW 3.5 mph - N/A   Clear
11:15 PM 28.4 °F - 24.8 °F 86% 30.02 in 10.0 mi Calm Calm - N/A   Clear
11:35 PM 28.4 °F - 24.8 °F 86% 30.01 in 10.0 mi Calm Calm - N/A   Clear
11:55 PM 28.4 °F - 24.8 °F 86% 30.01 in 10.0 mi Calm Calm - N/A   Clear